Corpus Christi, TX

10:02 AM CDT on July 20, 2017 (GMT -0500)
Corpus Christi International

Weather History for KCRP - May, 2013

Change the Weather History Date:

Sunday, May 12, 2013

  Actual Average Record
Temperature  
Mean Temperature 73 °F 78 °F  
Max Temperature 80 °F 86 °F 94 °F (1967)
Min Temperature 65 °F 69 °F 53 °F (1952)
Degree Days  
Heating Degree Days 0 0  
Month to date heating degree days 1 0  
Since 1 July heating degree days 529 898  
Cooling Degree Days 8 13  
Month to date cooling degree days 112 140  
Year to date cooling degree days 655 568  
Growing Degree Days 23 (Base 50)    
Moisture  
Dew Point 63 °F    
Average Humidity 71    
Maximum Humidity 84    
Minimum Humidity 57    
Precipitation  
Precipitation 0.30 in 0.09 in 4.56 in (2015)
Month to date precipitation 0.61 1.07  
Year to date precipitation 3.94 8.27  
Snow  
Snow 0.00 in - - ()
Month to date snowfall 0.0  
Since 1 July snowfall 0.0  
Snow Depth 0.00 in    
Sea Level Pressure  
Sea Level Pressure 30.12 in    
Wind  
Wind Speed 10 mph (NE)    
Max Wind Speed 21 mph    
Max Gust Speed 25 mph    
Visibility 10 miles    
Events Rain , Thunderstorm    
T = Trace of Precipitation, MM = Missing Value Source: NWS Daily Summary

Daily Weather History Graph

Daily Weather History Graph

Search for Another Location

Airport or City:

Trip Planner

Search our weather history database for the weather conditions in past years. The results will help you decide how hot, cold, wet, or windy it might be!

Date:

Astronomy

May. 12, 2013 Rise Set
Actual Time 6:42 AM CDT 8:10 PM CDT
Civil Twilight 6:17 AM CDT 8:36 PM CDT
Nautical Twilight 5:46 AM CDT 9:06 PM CDT
Astronomical Twilight 5:15 AM CDT 9:37 PM CDT
Moon 8:41 AM CDT (5/12) 10:36 PM CDT (5/12)
Length of Visible Light 14h 19m
Length of Day
13h 28m
Waxing Crescent, 7% of the Moon is Illuminated
May 12
Waxing Crescent
May 17
First Quarter
May 24
Full
May 31
Last Quarter
Jun 8
New

Hourly Weather History & Observations

Time (CDT) Temp. Dew Point Humidity Pressure Visibility Wind Dir Wind Speed Gust Speed Precip Events Conditions
12:51 AM 73.9 °F 61.0 °F 64% 30.10 in 10.0 mi NE 15.0 mph 25.3 mph 0.03 in Rain Light Rain
1:51 AM 72.0 °F 60.1 °F 66% 30.10 in 10.0 mi North 11.5 mph - 0.02 in Rain Light Rain
2:51 AM 72.0 °F 57.0 °F 59% 30.07 in 10.0 mi NNE 15.0 mph - 0.00 in   Mostly Cloudy
3:51 AM 72.0 °F 55.9 °F 57% 30.05 in 10.0 mi NE 9.2 mph - N/A   Scattered Clouds
4:51 AM 71.1 °F 59.0 °F 66% 30.06 in 10.0 mi NE 6.9 mph - 0.00 in   Mostly Cloudy
5:51 AM 70.0 °F 59.0 °F 68% 30.06 in 10.0 mi North 11.5 mph - 0.00 in Rain Light Rain
6:51 AM 70.0 °F 59.0 °F 68% 30.08 in 10.0 mi NNE 11.5 mph - 0.00 in   Mostly Cloudy
7:51 AM 70.0 °F 57.9 °F 65% 30.11 in 10.0 mi NNE 10.4 mph - 0.00 in Rain Light Rain
8:51 AM 70.0 °F 60.1 °F 71% 30.12 in 10.0 mi NNW 12.7 mph - 0.00 in Rain Light Rain
9:38 AM 66.2 °F 60.8 °F 83% 30.15 in 10.0 mi NNW 15.0 mph - 0.01 in Rain , Thunderstorm Light Thunderstorms and Rain
9:51 AM 66.9 °F 62.1 °F 84% 30.15 in 5.0 mi NNW 16.1 mph - 0.03 in Rain , Thunderstorm Thunderstorms and Rain
10:05 AM 66.2 °F 62.6 °F 88% 30.16 in 5.0 mi NW 15.0 mph - 0.03 in Rain Rain
10:51 AM 66.0 °F 61.0 °F 84% 30.17 in 10.0 mi NW 16.1 mph - 0.13 in Rain Light Rain
11:03 AM 66.2 °F 60.8 °F 83% 30.17 in 10.0 mi NNW 15.0 mph - 0.00 in Rain Light Rain
11:51 AM 69.1 °F 64.9 °F 87% 30.15 in 6.0 mi North 10.4 mph - 0.05 in Rain Rain
12:51 PM 71.1 °F 64.9 °F 81% 30.13 in 10.0 mi ENE 9.2 mph - 0.02 in Rain Light Rain
1:51 PM 73.9 °F 69.1 °F 85% 30.13 in 10.0 mi East 8.1 mph - 0.01 in   Mostly Cloudy
2:12 PM 77.0 °F 69.8 °F 78% 30.13 in 10.0 mi ENE 16.1 mph 24.2 mph N/A   Mostly Cloudy
2:21 PM 77.0 °F 68.0 °F 74% 30.13 in 10.0 mi ENE 16.1 mph 24.2 mph N/A   Mostly Cloudy
2:41 PM 78.8 °F 66.2 °F 65% 30.12 in 10.0 mi East 13.8 mph - N/A   Mostly Cloudy
2:51 PM 78.1 °F 66.9 °F 68% 30.12 in 10.0 mi ENE 11.5 mph - N/A   Mostly Cloudy
3:27 PM 78.8 °F 66.2 °F 65% 30.12 in 10.0 mi East 13.8 mph - N/A   Scattered Clouds
3:51 PM 79.0 °F 64.0 °F 60% 30.12 in 10.0 mi ENE 13.8 mph - N/A   Mostly Cloudy
4:51 PM 75.0 °F 64.9 °F 71% 30.12 in 10.0 mi NNE 10.4 mph - N/A   Mostly Cloudy
5:13 PM 73.4 °F 66.2 °F 78% 30.11 in 7.0 mi NNE 5.8 mph - 0.00 in Rain Light Rain
5:51 PM 73.9 °F 66.9 °F 79% 30.11 in 8.0 mi ESE 9.2 mph - 0.04 in Rain Light Rain
6:51 PM 73.9 °F 66.9 °F 79% 30.09 in 10.0 mi ESE 9.2 mph - 0.01 in   Mostly Cloudy
7:51 PM 73.9 °F 66.0 °F 76% 30.10 in 10.0 mi ESE 6.9 mph - N/A   Scattered Clouds
8:51 PM 72.0 °F 64.9 °F 78% 30.11 in 10.0 mi East 5.8 mph - N/A   Scattered Clouds
9:51 PM 72.0 °F 63.0 °F 73% 30.15 in 10.0 mi East 5.8 mph - N/A   Clear
10:51 PM 71.1 °F 62.1 °F 73% 30.17 in 10.0 mi ESE 5.8 mph - N/A   Partly Cloudy
11:51 PM 71.1 °F 62.1 °F 73% 30.17 in 10.0 mi East 6.9 mph - N/A   Partly Cloudy